"Period start","avg(HW err(1)/warn(2) (#))","avg(Visibility (m))","avg(Weather code (#))","avg(Precip intensity (mm/h))","min(HW err(1)/warn(2) (#))","max(HW err(1)/warn(2) (#))","std(HW err(1)/warn(2) (#))","med(HW err(1)/warn(2) (#))","min(Visibility (m))","max(Visibility (m))","std(Visibility (m))","med(Visibility (m))","min(Weather code (#))","max(Weather code (#))","std(Weather code (#))","med(Weather code (#))","min(Precip intensity (mm/h))","max(Precip intensity (mm/h))","std(Precip intensity (mm/h))","med(Precip intensity (mm/h))"
2016-04-12 00:00:00,2,31283,0,0.00,2,2,0,2,22031,37914,4260,32788,0,0,0,0,0.00,0.00,0.00,0.00
2016-04-12 00:10:00,2,34202,0,0.00,2,2,0,2,24936,50000,8591,30686,0,0,0,0,0.00,0.00,0.00,0.00
2016-04-12 00:20:00,2,31781,0,0.00,2,2,0,2,19117,50000,11301,26658,0,0,0,0,0.00,0.00,0.00,0.00
2016-04-12 00:30:00,2,34378,0,0.00,2,2,0,2,22608,46501,7671,33128,0,0,0,0,0.00,0.00,0.00,0.00
2016-04-12 00:40:00,2,41069,0,0.00,2,2,0,2,30106,50000,5385,40368,0,0,0,0,0.00,0.00,0.00,0.00
2016-04-12 00:50:00,2,34576,0,0.00,2,2,0,2,15421,50000,10239,35175,0,0,0,0,0.00,0.00,0.00,0.00
2016-04-12 01:00:00,2,41339,0,0.00,2,2,0,2,24143,50000,8112,41444,0,0,0,0,0.00,0.00,0.00,0.00
2016-04-12 01:10:00,2,38086,0,0.00,2,2,0,2,29343,50000,6570,37852,0,0,0,0,0.00,0.00,0.00,0.00
2016-04-12 01:20:00,2,34598,0,0.00,2,2,0,2,23495,50000,9151,36032,0,0,0,0,0.00,0.00,0.00,0.00
2016-04-12 01:30:00,2,32838,0,0.00,2,2,0,2,20947,42098,6844,32874,0,0,0,0,0.00,0.00,0.00,0.00
2016-04-12 01:40:00,2,29667,0,0.00,2,2,0,2,16681,50000,8792,28004,0,0,0,0,0.00,0.00,0.00,0.00
2016-04-12 01:50:00,2,38213,0,0.00,2,2,0,2,23146,50000,8881,39528,0,0,0,0,0.00,0.00,0.00,0.00
2016-04-12 02:00:00,2,39672,0,0.00,2,2,0,2,27314,50000,6580,38998,0,0,0,0,0.00,0.00,0.00,0.00
2016-04-12 02:10:00,2,38624,0,0.00,2,2,0,2,18661,50000,8880,39627,0,0,0,0,0.00,0.00,0.00,0.00
2016-04-12 02:20:00,2,32219,0,0.00,2,2,0,2,18033,44135,8394,35166,0,0,0,0,0.00,0.00,0.00,0.00
2016-04-12 02:30:00,2,39920,0,0.00,2,2,0,2,23417,49990,8895,43496,0,0,0,0,0.00,0.00,0.00,0.00
2016-04-12 02:40:00,2,30570,0,0.00,2,2,0,2,20123,42097,6108,30938,0,0,0,0,0.00,0.00,0.00,0.00
2016-04-12 02:50:00,2,44510,0,0.00,2,2,0,2,36392,50000,4301,44560,0,0,0,0,0.00,0.00,0.00,0.00
2016-04-12 03:00:00,2,42028,0,0.00,2,2,0,2,28694,50000,7549,44477,0,0,0,0,0.00,0.00,0.00,0.00
2016-04-12 03:10:00,2,35745,0,0.00,2,2,0,2,22869,49060,8464,37871,0,0,0,0,0.00,0.00,0.00,0.00
2016-04-12 03:20:00,2,42806,0,0.00,2,2,0,2,27677,50000,8028,45449,0,0,0,0,0.00,0.00,0.00,0.00
2016-04-12 03:30:00,2,41066,0,0.00,2,2,0,2,25188,48957,7223,43188,0,0,0,0,0.00,0.00,0.00,0.00
2016-04-12 03:40:00,2,28219,0,0.00,2,2,0,2,21159,42396,5881,26757,0,0,0,0,0.00,0.00,0.00,0.00
2016-04-12 03:50:00,2,36601,0,0.00,2,2,0,2,26864,45597,5805,37184,0,0,0,0,0.00,0.00,0.00,0.00
2016-04-12 04:00:00,2,34815,0,0.00,2,2,0,2,24014,50000,7993,32284,0,0,0,0,0.00,0.00,0.00,0.00
2016-04-12 04:10:00,2,35054,0,0.00,2,2,0,2,22581,50000,8363,33260,0,0,0,0,0.00,0.00,0.00,0.00
2016-04-12 04:20:00,2,41644,0,0.00,2,2,0,2,28138,49957,7756,45964,0,0,0,0,0.00,0.00,0.00,0.00
2016-04-12 04:30:00,2,40410,0,0.00,2,2,0,2,23978,50000,8526,43358,0,0,0,0,0.00,0.00,0.00,0.00
2016-04-12 04:40:00,1,38298,0,0.00,0,2,1,2,30586,49562,6155,36323,0,0,0,0,0.00,0.00,0.00,0.00
2016-04-12 04:50:00,2,40791,0,0.00,2,2,0,2,23776,50000,8489,43012,0,0,0,0,0.00,0.00,0.00,0.00
2016-04-12 05:00:00,2,40559,0,0.00,2,2,0,2,36867,44448,2635,41160,0,0,0,0,0.00,0.00,0.00,0.00
2016-04-12 05:10:00,2,38426,0,0.00,2,2,0,2,25893,50000,9548,40674,0,0,0,0,0.00,0.00,0.00,0.00
2016-04-12 05:20:00,2,43661,0,0.00,2,2,0,2,32930,50000,4807,45386,0,0,0,0,0.00,0.00,0.00,0.00
2016-04-12 05:30:00,2,45218,0,0.00,2,2,0,2,37184,50000,5158,47603,0,0,0,0,0.00,0.00,0.00,0.00
2016-04-12 05:40:00,2,37999,0,0.00,2,2,0,2,29674,45145,5514,40877,0,0,0,0,0.00,0.00,0.00,0.00
2016-04-12 05:50:00,2,40532,0,0.00,2,2,0,2,30688,50000,5896,40258,0,0,0,0,0.00,0.00,0.00,0.00
2016-04-12 06:00:00,2,41642,0,0.00,2,2,0,2,29461,50000,5672,42682,0,0,0,0,0.00,0.00,0.00,0.00
2016-04-12 06:10:00,2,41707,0,0.00,2,2,0,2,31446,50000,6351,42838,0,0,0,0,0.00,0.00,0.00,0.00
2016-04-12 06:20:00,2,47774,0,0.00,2,2,0,2,36228,50000,4201,50000,0,0,0,0,0.00,0.00,0.00,0.00
2016-04-12 06:30:00,2,46315,0,0.00,2,2,0,2,39390,50000,4221,48304,0,0,0,0,0.00,0.00,0.00,0.00
2016-04-12 06:40:00,2,39913,0,0.00,2,2,0,2,33256,50000,5766,39304,0,0,0,0,0.00,0.00,0.00,0.00
2016-04-12 06:50:00,2,43924,0,0.00,2,2,0,2,36368,50000,4372,44557,0,0,0,0,0.00,0.00,0.00,0.00
2016-04-12 07:00:00,2,45501,0,0.00,2,2,0,2,39087,50000,3643,46033,0,0,0,0,0.00,0.00,0.00,0.00
2016-04-12 07:10:00,2,43763,0,0.00,2,2,0,2,37260,50000,4444,42618,0,0,0,0,0.00,0.00,0.00,0.00
2016-04-12 07:20:00,2,42194,0,0.00,2,2,0,2,34123,50000,5414,41248,0,0,0,0,0.00,0.00,0.00,0.00
2016-04-12 07:30:00,2,43821,0,0.00,2,2,0,2,38227,50000,3222,43973,0,0,0,0,0.00,0.00,0.00,0.00
2016-04-12 07:40:00,2,45488,0,0.00,2,2,0,2,32530,50000,5905,49383,0,0,0,0,0.00,0.00,0.00,0.00
2016-04-12 07:50:00,2,45360,0,0.00,2,2,0,2,36859,50000,4622,47154,0,0,0,0,0.00,0.00,0.00,0.00
2016-04-12 08:00:00,2,42586,0,0.00,2,2,0,2,33629,49520,4625,41754,0,0,0,0,0.00,0.00,0.00,0.00
2016-04-12 08:10:00,2,44755,0,0.00,2,2,0,2,33160,50000,5768,47586,0,0,0,0,0.00,0.00,0.00,0.00
2016-04-12 08:20:00,2,42017,0,0.00,2,2,0,2,31275,50000,4945,42050,0,0,0,0,0.00,0.00,0.00,0.00
2016-04-12 08:30:00,2,44603,0,0.00,2,2,0,2,37899,50000,4361,44229,0,0,0,0,0.00,0.00,0.00,0.00
2016-04-12 08:40:00,2,46237,0,0.00,2,2,0,2,38661,50000,3960,47972,0,0,0,0,0.00,0.00,0.00,0.00
2016-04-12 08:50:00,2,48120,0,0.00,2,2,0,2,42556,50000,2392,49197,0,0,0,0,0.00,0.00,0.00,0.00
2016-04-12 09:00:00,2,48918,0,0.00,2,2,0,2,46055,50000,1666,50000,0,0,0,0,0.00,0.00,0.00,0.00
2016-04-12 09:10:00,2,48055,0,0.00,2,2,0,2,45988,50000,1032,47982,0,0,0,0,0.00,0.00,0.00,0.00
2016-04-12 09:20:00,2,47542,0,0.00,2,2,0,2,43210,49920,2247,47880,0,0,0,0,0.00,0.00,0.00,0.00
2016-04-12 09:30:00,2,48229,0,0.00,2,2,0,2,42301,50000,2927,50000,0,0,0,0,0.00,0.00,0.00,0.00
2016-04-12 09:40:00,2,49589,0,0.00,2,2,0,2,48270,50000,676,50000,0,0,0,0,0.00,0.00,0.00,0.00
2016-04-12 09:50:00,2,46135,0,0.00,2,2,0,2,39125,50000,4387,48274,0,0,0,0,0.00,0.00,0.00,0.00
2016-04-12 10:00:00,2,46056,0,0.00,2,2,0,2,35220,50000,4187,47462,0,0,0,0,0.00,0.00,0.00,0.00
2016-04-12 10:10:00,2,45445,0,0.00,2,2,0,2,36082,50000,4683,46157,0,0,0,0,0.00,0.00,0.00,0.00
2016-04-12 10:20:00,2,48684,0,0.00,2,2,0,2,45429,50000,1697,49928,0,0,0,0,0.00,0.00,0.00,0.00
2016-04-12 10:30:00,2,46091,0,0.00,2,2,0,2,39589,50000,4090,48082,0,0,0,0,0.00,0.00,0.00,0.00
2016-04-12 10:40:00,2,43028,0,0.00,2,2,0,2,36774,50000,3747,44014,0,0,0,0,0.00,0.00,0.00,0.00
2016-04-12 10:50:00,2,45666,0,0.00,2,2,0,2,40072,50000,3241,45348,0,0,0,0,0.00,0.00,0.00,0.00
2016-04-12 11:00:00,2,45506,0,0.00,2,2,0,2,37538,50000,4449,46920,0,0,0,0,0.00,0.00,0.00,0.00
2016-04-12 11:10:00,2,47168,0,0.00,2,2,0,2,43133,50000,2937,48442,0,0,0,0,0.00,0.00,0.00,0.00
2016-04-12 11:20:00,2,47147,0,0.00,2,2,0,2,41176,49970,2618,47930,0,0,0,0,0.00,0.00,0.00,0.00
2016-04-12 11:30:00,2,42281,0,0.00,2,2,0,2,37401,46679,3095,41882,0,0,0,0,0.00,0.00,0.00,0.00
2016-04-12 11:40:00,2,48703,0,0.00,2,2,0,2,44715,50000,1752,49286,0,0,0,0,0.00,0.00,0.00,0.00
2016-04-12 11:50:00,2,44815,0,0.00,2,2,0,2,37958,50000,3778,45474,0,0,0,0,0.00,0.00,0.00,0.00
2016-04-12 12:00:00,2,45210,0,0.00,2,2,0,2,36881,50000,3871,45564,0,0,0,0,0.00,0.00,0.00,0.00
2016-04-12 12:10:00,2,46874,0,0.00,2,2,0,2,42718,50000,2294,47375,0,0,0,0,0.00,0.00,0.00,0.00
2016-04-12 12:20:00,2,42826,0,0.00,2,2,0,2,39563,49191,3370,41344,0,0,0,0,0.00,0.00,0.00,0.00
2016-04-12 12:30:00,2,46959,0,0.00,2,2,0,2,43323,50000,2210,47325,0,0,0,0,0.00,0.00,0.00,0.00
2016-04-12 12:40:00,2,40657,0,0.00,2,2,0,2,20650,50000,12131,49372,0,0,0,0,0.00,0.00,0.00,0.00
2016-04-12 12:50:00,2,20262,0,0.00,2,2,0,2,16143,24659,3135,20646,0,0,0,0,0.00,0.00,0.00,0.00
2016-04-12 13:00:00,2,22400,0,0.00,2,2,0,2,17870,28936,2997,22225,0,0,0,0,0.00,0.00,0.00,0.00
2016-04-12 13:10:00,2,38176,0,0.00,2,2,0,2,32054,45248,3380,37968,0,0,0,0,0.00,0.00,0.00,0.00
2016-04-12 13:20:00,2,42128,0,0.00,2,2,0,2,37055,48270,3365,42374,0,0,0,0,0.00,0.00,0.00,0.00
2016-04-12 13:30:00,2,44388,0,0.00,2,2,0,2,36949,50000,3692,44573,0,0,0,0,0.00,0.00,0.00,0.00
2016-04-12 13:40:00,2,33491,0,0.00,2,2,0,2,25735,43951,6460,34657,0,0,0,0,0.00,0.00,0.00,0.00
2016-04-12 13:50:00,2,29475,0,0.00,2,2,0,2,15234,48128,11103,29139,0,0,0,0,0.00,0.00,0.00,0.00
2016-04-12 14:00:00,2,15930,0,0.00,2,2,0,2,14208,21047,1920,15430,0,0,0,0,0.00,0.00,0.00,0.00
2016-04-12 14:10:00,2,14370,0,0.00,2,2,0,2,12458,17880,2091,13269,0,0,0,0,0.00,0.00,0.00,0.00
2016-04-12 14:20:00,2,15259,0,0.00,2,2,0,2,8479,19329,3139,15232,0,0,0,0,0.00,0.00,0.00,0.00
2016-04-12 14:30:00,2,10209,0,0.00,2,2,0,2,8331,12347,1197,10306,0,0,0,0,0.00,0.00,0.00,0.00
2016-04-12 14:40:00,2,18379,0,0.00,2,2,0,2,10358,24428,5072,19529,0,0,0,0,0.00,0.00,0.00,0.00
2016-04-12 14:50:00,2,17575,0,0.00,2,2,0,2,14074,20889,2070,17790,0,0,0,0,0.00,0.00,0.00,0.00
2016-04-12 15:00:00,2,12448,0,0.00,2,2,0,2,10955,13820,856,12616,0,0,0,0,0.00,0.00,0.00,0.00
2016-04-12 15:10:00,2,1308,56,0.00,2,2,0,2,444,2969,825,1036,10,78,30,74,0.00,0.00,0.00,0.00
2016-04-12 15:20:00,2,6460,39,0.00,2,2,0,2,2460,12674,4007,4066,20,78,26,20,0.00,0.00,0.00,0.00
2016-04-12 15:30:00,2,6627,20,0.00,2,2,0,2,1656,10625,3178,6822,20,20,0,20,0.00,0.00,0.00,0.00
2016-04-12 15:40:00,2,914,27,0.00,2,2,0,2,299,5030,1381,426,20,34,7,25,0.00,0.00,0.00,0.00
2016-04-12 15:50:00,2,376,34,0.00,2,2,0,2,300,425,39,386,34,34,0,34,0.00,0.00,0.00,0.00
2016-04-12 16:00:00,2,319,59,0.07,2,2,0,2,265,367,33,315,34,77,20,71,0.00,0.20,0.07,0.03
2016-04-12 16:10:00,2,1037,75,0.12,2,2,0,2,268,3079,1102,320,71,77,3,77,0.00,0.30,0.10,0.12
2016-04-12 16:20:00,2,1114,44,0.00,2,2,0,2,547,1641,359,1192,30,71,18,34,0.00,0.00,0.00,0.00
2016-04-12 16:30:00,2,1314,47,0.00,2,2,0,2,680,2009,458,1373,20,77,23,30,0.00,0.00,0.00,0.00
2016-04-12 16:40:00,2,2593,27,0.00,2,2,0,2,775,5157,1542,2314,20,30,5,30,0.00,0.00,0.00,0.00
2016-04-12 16:50:00,2,3781,20,0.00,2,2,0,2,2245,5561,1126,3526,20,20,0,20,0.00,0.00,0.00,0.00
2016-04-12 17:00:00,2,4340,20,0.00,2,2,0,2,3457,6481,822,4352,20,20,0,20,0.00,0.00,0.00,0.00
2016-04-12 17:10:00,2,2978,20,0.00,2,2,0,2,535,5595,1885,3696,20,20,0,20,0.00,0.00,0.00,0.00
2016-04-12 17:20:00,2,4404,30,0.00,2,2,0,2,345,21198,6658,969,20,33,4,32,0.00,0.00,0.00,0.00
2016-04-12 17:30:00,2,307,71,0.08,2,2,0,2,254,400,42,307,71,71,0,71,0.00,0.30,0.08,0.05
2016-04-12 17:40:00,2,475,31,0.00,2,2,0,2,390,570,54,470,31,31,0,31,0.00,0.00,0.00,0.00
2016-04-12 17:50:00,2,546,47,0.04,2,2,0,2,212,1148,320,408,31,71,20,31,0.00,0.30,0.09,0.00
2016-04-12 18:00:00,2,581,64,0.03,2,2,0,2,460,797,95,561,34,77,15,71,0.00,0.10,0.04,0.00
2016-04-12 18:10:00,2,716,50,0.00,2,2,0,2,528,1112,163,666,32,77,20,34,0.00,0.00,0.00,0.00
2016-04-12 18:20:00,2,495,36,0.00,2,2,0,2,446,552,32,494,32,71,12,32,0.00,0.00,0.00,0.00
2016-04-12 18:30:00,2,1345,52,0.04,2,2,0,2,621,2193,557,1328,32,71,20,52,0.00,0.40,0.12,0.00
2016-04-12 18:40:00,2,7576,22,0.00,2,2,0,2,4583,10862,2014,8042,20,32,5,20,0.00,0.00,0.00,0.00
2016-04-12 18:50:00,2,4142,20,0.00,2,2,0,2,471,8970,3174,4437,20,20,0,20,0.00,0.00,0.00,0.00
2016-04-12 19:00:00,2,2551,20,0.00,2,2,0,2,522,6546,1974,1862,20,20,0,20,0.00,0.00,0.00,0.00
2016-04-12 19:10:00,2,16716,20,0.00,2,2,0,2,1713,22551,6646,19026,20,20,0,20,0.00,0.00,0.00,0.00
2016-04-12 19:20:00,2,24311,40,0.01,2,2,0,2,9483,36090,7536,25954,20,71,25,20,0.00,0.10,0.03,0.00
2016-04-12 19:30:00,2,21114,20,0.00,2,2,0,2,8818,36000,8838,18887,20,20,0,20,0.00,0.00,0.00,0.00
2016-04-12 19:40:00,2,6157,14,0.00,2,2,0,2,1478,15823,4697,3935,10,20,5,10,0.00,0.00,0.00,0.00
2016-04-12 19:50:00,2,7693,10,0.00,2,2,0,2,3986,13168,3439,6026,10,10,0,10,0.00,0.00,0.00,0.00
2016-04-12 20:00:00,2,3193,10,0.00,2,2,0,2,2836,3623,228,3089,10,10,0,10,0.00,0.00,0.00,0.00
2016-04-12 20:10:00,2,5890,22,0.01,2,2,0,2,3832,10317,1915,5384,10,71,24,10,0.00,0.05,0.02,0.00
2016-04-12 20:20:00,2,17903,21,0.07,2,2,0,2,5669,23195,4901,19610,0,71,33,0,0.00,0.50,0.16,0.00
2016-04-12 20:30:00,2,14215,0,0.00,2,2,0,2,12474,16110,1368,14080,0,0,0,0,0.00,0.00,0.00,0.00
2016-04-12 20:40:00,2,9454,0,0.00,2,2,0,2,6130,18883,3532,9112,0,0,0,0,0.00,0.00,0.00,0.00
2016-04-12 20:50:00,2,9519,24,0.00,2,2,0,2,7047,11463,1463,9768,0,71,25,10,0.00,0.00,0.00,0.00
2016-04-12 21:00:00,2,15114,7,0.00,2,2,0,2,11419,18489,2282,15535,0,10,5,10,0.00,0.00,0.00,0.00
2016-04-12 21:10:00,2,12363,0,0.00,2,2,0,2,10192,15075,1370,12290,0,0,0,0,0.00,0.00,0.00,0.00
2016-04-12 21:20:00,2,21970,0,0.00,2,2,0,2,15262,29912,3846,21846,0,0,0,0,0.00,0.00,0.00,0.00
2016-04-12 21:30:00,2,27208,0,0.00,2,2,0,2,3783,38761,10349,30950,0,0,0,0,0.00,0.00,0.00,0.00
2016-04-12 21:40:00,2,16507,0,0.00,2,2,0,2,6085,28430,7638,15792,0,0,0,0,0.00,0.00,0.00,0.00
2016-04-12 21:50:00,2,7333,8,0.00,2,2,0,2,3745,10574,2039,7446,0,10,4,10,0.00,0.00,0.00,0.00
2016-04-12 22:00:00,2,9352,29,0.01,2,2,0,2,6098,14851,2733,8798,10,77,29,10,0.00,0.05,0.02,0.00
2016-04-12 22:10:00,2,14203,40,0.01,2,2,0,2,10129,18050,3169,14936,0,77,37,44,0.00,0.05,0.02,0.00
2016-04-12 22:20:00,2,11935,43,0.06,2,2,0,2,7116,16437,3391,11924,0,71,35,71,0.00,0.40,0.13,0.00
2016-04-12 22:30:00,2,17017,28,0.00,2,2,0,2,7289,34660,9451,14200,10,71,28,10,0.00,0.00,0.00,0.00
2016-04-12 22:40:00,2,22610,1,0.00,2,2,0,2,17244,37346,5896,19880,0,10,3,0,0.00,0.00,0.00,0.00
2016-04-12 22:50:00,2,32006,0,0.00,2,2,0,2,14578,44424,9754,34542,0,0,0,0,0.00,0.00,0.00,0.00
2016-04-12 23:00:00,2,28490,0,0.00,2,2,0,2,19338,41793,7253,26912,0,0,0,0,0.00,0.00,0.00,0.00
2016-04-12 23:10:00,2,17637,45,0.01,2,2,0,2,10026,28549,5986,15064,0,78,37,71,0.00,0.05,0.02,0.00
2016-04-12 23:20:00,2,28972,21,0.03,2,2,0,2,6906,49916,11267,28913,0,71,33,0,0.00,0.30,0.09,0.00
2016-04-12 23:30:00,2,32162,0,0.00,2,2,0,2,18987,47334,9231,31432,0,0,0,0,0.00,0.00,0.00,0.00
2016-04-12 23:40:00,2,37795,0,0.00,2,2,0,2,20047,50000,9680,41198,0,0,0,0,0.00,0.00,0.00,0.00
2016-04-12 23:50:00,2,21336,0,0.00,2,2,0,2,13605,40388,8395,18082,0,0,0,0,0.00,0.00,0.00,0.00
